Theta_e
291 289 288 291 291 291 290 288 287 287 289 289 288 289 291 293 291 291 291 292 294 296 298 296 298 298 296 294 290 289 288 288 289 287 286 286 286 287 287 289 291 291 292 296
287 285 289 293 293 291 288 285 284 286 288 289 286 288 291 291 292 293 294 292 295 296 294 295 297 297 296 294 292 289 289 289 289 289 287 287 287 287 287 288 289 291 291 292
283 285 291 290 289 289 286 286 285 285 285 284 282 282 284 286 289 291 294 295 296 296 295 295 296 297 296 294 291 291 290 289 290 290 288 287 287 287 286 286 287 288 290 290
285 287 288 287 287 289 284 290 288 286 283 280 282 276 282 285 286 288 291 292 294 295 298 297 296 296 296 295 293 292 290 290 290 289 288 287 287 285 286 286 286 287 289 289
283 285 285 285 286 289 287 290 288 286 282 281 279 278 280 282 284 286 287 290 293 294 297 297 296 298 297 295 293 292 290 290 290 290 289 288 286 286 286 286 286 286 287 289
284 287 286 286 288 290 290 287 286 284 281 275 280 279 277 282 285 285 287 288 291 291 296 298 298 298 298 295 293 291 290 290 290 290 288 288 287 286 285 285 284 285 286 287
282 283 286 287 287 288 287 283 276 274 274 275 278 277 282 286 288 288 289 289 289 291 293 295 295 296 297 294 293 291 291 290 290 289 289 288 288 287 287 286 285 284 285 285
277 276 284 287 286 285 284 283 277 271 273 276 278 277 284 289 288 289 290 289 290 289 292 295 296 297 297 295 293 293 291 291 290 289 289 288 288 288 287 287 286 286 286 286
277 277 284 286 286 287 284 281 284 279 270 275 278 281 286 289 290 289 288 289 291 288 291 294 295 297 297 296 295 294 292 292 290 289 289 288 288 288 287 287 286 286 286 287
284 278 282 284 285 285 284 286 279 278 270 271 276 278 281 286 288 290 290 288 289 289 289 293 294 296 298 298 297 295 293 292 291 289 289 290 288 288 287 287 286 286 286 287
285 282 280 283 281 281 282 281 281 281 279 276 275 278 284 285 287 289 289 290 289 289 289 292 293 294 296 296 295 295 293 291 290 290 289 289 288 288 287 287 287 287 286 286
287 282 277 279 283 284 282 282 282 277 276 277 279 279 287 287 288 290 290 292 290 290 290 291 292 294 294 294 294 294 293 292 291 291 290 290 288 287 287 287 286 286 286 286
288 282 273 277 280 282 281 282 283 282 280 277 276 277 285 287 287 289 290 291 292 290 286 290 292 293 294 294 294 294 293 292 291 291 290 289 288 287 287 286 286 286 286 286
292 285 281 277 279 281 280 282 283 282 277 278 278 279 284 286 286 287 287 291 291 290 289 288 290 292 294 295 295 294 293 293 292 291 290 289 288 288 287 286 286 286 285 285
286 276 280 282 284 282 281 281 281 281 282 279 280 280 283 286 287 288 286 289 291 292 291 289 289 290 292 293 294 295 294 293 292 291 290 290 289 288 287 286 286 285 285 285
285 276 280 278 283 283 281 283 282 281 281 281 282 283 289 291 292 291 292 293 291 291 292 291 290 291 292 294 295 295 294 293 292 291 290 290 288 287 286 285 285 284 284 283
279 278 276 274 281 283 276 282 282 283 283 284 280 286 286 287 287 289 289 289 289 290 292 292 292 292 293 294 296 295 295 294 292 291 291 289 288 286 285 285 284 283 283 283
276 273 272 271 273 270 282 285 286 285 287 286 286 288 289 288 289 290 291 290 291 290 291 292 293 294 294 295 296 297 296 293 292 291 290 289 288 286 285 284 283 283 283 283
284 279 276 272 265 277 282 284 284 284 285 289 289 291 292 288 286 290 292 290 290 291 292 292 294 296 295 294 296 296 295 293 292 291 291 289 288 286 284 283 283 283 283 282
284 282 277 266 267 269 279 284 287 288 281 287 289 289 288 287 283 287 290 290 290 291 291 292 294 294 293 294 295 295 294 292 291 292 290 289 287 286 284 284 283 283 283 283
281 275 271 267 265 273 283 285 288 277 281 286 287 287 287 287 288 289 289 289 289 289 290 291 292 292 293 294 295 294 293 292 293 289 288 287 287 285 285 284 283 283 282 282
280 276 275 269 265 271 285 285 284 286 285 286 285 286 285 286 287 288 288 288 288 288 289 289 289 291 291 292 293 292 292 293 288 287 286 285 285 284 284 283 282 282 282 281
276 279 276 280 279 284 285 285 286 286 286 284 285 285 285 285 286 286 286 286 287 286 286 286 287 286 288 288 290 289 289 286 285 285 284 283 283 283 283 283 282 282 282 282
280 282 279 281 282 284 285 285 285 284 284 285 284 285 284 284 285 284 284 285 284 284 285 285 285 285 285 285 285 287 285 285 285 284 282 282 282 282 282 283 283 283 282 282
281 283 279 278 282 283 282 282 282 283 283 283 284 284 284 284 284 283 284 284 284 284 284 284 283 284 283 281 280 280 283 284 284 282 282 282 282 282 282 282 282 283 283 284
280 280 282 279 284 284 284 284 283 282 281 282 282 282 283 283 283 283 283 283 282 282 282 282 284 284 283 281 277 277 279 282 283 282 282 282 282 282 282 282 282 286 286 286
Wind_Speed
0 4 11 10 6 4 5 4 3 2 1 4 7 7 8 9 7 10 10 11 13 17 11 10 12 11 11 10 11 11 10 8 6 3 4 2 3 2 2 3 5 5 4 5
5 10 4 5 4 4 2 2 1 2 1 3 2 11 12 9 11 16 18 14 17 12 9 12 13 13 15 14 13 12 12 11 8 6 3 3 4 3 2 2 3 4 5 5
8 4 10 6 5 5 3 5 4 2 1 2 4 9 7 6 8 7 15 12 16 19 18 15 16 17 15 15 15 15 14 13 10 8 4 3 4 3 2 2 2 3 5 5
5 1 8 6 6 7 5 6 6 6 4 4 2 7 7 7 9 8 14 14 17 17 14 14 17 16 17 15 14 14 13 13 10 10 6 7 5 5 4 4 3 4 5 5
8 4 6 4 6 6 6 5 7 3 4 3 2 2 11 4 9 12 11 15 16 16 18 19 20 20 17 16 15 13 14 13 11 12 9 7 5 3 2 3 6 4 4 5
2 0 1 5 3 5 8 7 8 6 3 3 7 8 7 6 7 5 5 8 10 11 16 17 16 16 16 13 14 13 15 13 12 12 10 11 9 7 5 4 5 4 3 3
3 3 3 2 6 5 6 7 3 4 3 8 2 2 10 9 9 7 7 7 8 9 11 12 15 16 15 17 16 14 16 14 13 13 12 11 9 9 10 8 6 6 4 3
8 2 6 3 5 9 6 8 7 8 6 5 2 7 9 8 5 7 9 9 7 8 10 14 18 18 18 19 18 17 16 14 13 13 13 9 8 6 6 7 5 6 5 5
7 4 2 2 1 3 6 5 5 7 3 3 5 9 11 8 3 6 8 7 9 6 9 13 14 16 16 17 19 19 17 14 14 14 10 9 8 8 8 7 6 5 5 5
8 6 2 2 1 2 3 6 3 3 3 4 3 5 8 5 7 9 9 7 9 6 5 7 11 13 14 13 14 14 15 16 13 11 10 9 9 8 7 6 8 7 6 6
5 6 1 2 6 8 3 3 2 4 5 6 2 7 7 3 1 5 8 8 7 7 5 5 5 5 7 7 10 12 13 13 12 12 10 8 8 7 7 8 7 8 7 7
4 6 5 5 2 1 0 5 6 6 4 2 3 8 1 2 4 4 7 8 5 4 4 5 6 7 7 8 9 12 12 13 13 13 11 10 8 7 8 8 8 7 9 7
9 1 5 5 6 2 5 4 4 4 3 7 6 7 1 4 5 5 6 7 5 5 2 4 6 8 9 10 10 11 11 12 10 11 12 11 11 10 10 8 8 8 8 8
8 3 6 9 6 6 7 6 6 5 4 4 8 4 6 9 6 7 5 8 7 5 6 5 6 7 8 9 10 11 10 10 11 12 12 12 13 12 11 9 9 9 8 8
7 6 3 5 5 3 4 7 9 11 6 7 4 6 8 12 11 12 1 3 5 8 7 8 8 7 8 8 7 8 9 11 12 12 12 12 11 10 10 10 10 8 8 8
2 1 4 2 1 4 0 5 6 4 4 10 9 19 14 21 19 16 22 22 14 9 9 10 9 8 11 12 11 11 12 12 12 13 13 12 11 11 12 11 10 9 8 7
6 6 4 2 2 4 6 12 11 6 7 7 10 14 3 8 9 11 10 11 11 11 10 9 11 12 11 13 13 15 14 12 14 14 13 13 13 13 12 11 11 11 11 9
7 6 4 3 4 2 8 3 1 13 13 10 11 13 11 9 7 11 9 9 13 9 9 9 8 10 12 10 12 11 13 14 15 15 14 13 13 13 11 11 12 10 8 11
3 6 5 6 3 7 9 5 7 7 11 8 13 13 15 4 3 19 9 3 5 7 8 8 9 11 7 10 12 12 11 12 13 16 16 15 15 14 13 14 13 10 10 8
6 6 7 3 6 9 5 5 2 6 14 4 8 8 5 6 2 7 6 6 8 7 6 10 13 8 7 10 10 12 13 14 16 16 14 13 14 15 15 14 13 10 8 9
4 3 7 4 4 10 10 9 0 7 7 2 2 1 3 3 4 7 8 8 5 7 11 10 10 8 10 5 10 13 12 15 15 9 10 12 13 13 13 12 10 10 9 8
9 7 4 3 1 11 7 4 10 4 2 2 2 1 1 3 8 7 9 9 9 12 12 10 10 10 8 6 8 11 15 12 8 11 12 12 12 10 10 13 10 10 10 9
4 9 9 12 10 5 4 1 3 1 2 2 2 0 2 5 6 8 8 9 10 9 9 8 7 10 8 5 6 7 5 7 8 11 11 10 10 10 11 12 11 9 9 8
4 4 4 5 6 7 3 1 5 4 4 4 3 5 2 5 7 8 8 8 8 7 8 6 9 9 8 6 4 4 6 8 10 10 9 9 10 10 9 7 8 8 8 7
6 10 7 5 1 1 3 3 2 4 3 4 5 4 6 6 8 6 9 7 7 7 6 6 7 6 8 6 4 1 5 8 8 8 8 9 8 8 8 5 7 7 4 8
5 8 8 6 6 4 3 4 1 2 2 2 2 5 5 4 8 6 8 6 5 7 6 6 6 8 5 4 4 3 2 5 8 8 7 7 8 8 8 8 7 8 11 11
Wind_Direction
234 115 195 186 162 148 153 148 186 254 308 146 219 264 245 220 217 232 226 219 218 219 210 184 183 170 164 163 160 167 159 173 156 151 141 131 175 175 187 202 187 173 158 153
62 230 181 138 167 150 125 117 154 311 340 148 306 262 255 214 221 217 219 217 219 216 196 190 182 175 177 173 174 169 175 173 174 169 162 158 153 194 173 187 190 182 168 165
157 244 159 150 165 177 187 156 185 207 60 47 316 287 265 272 237 227 228 219 217 207 199 192 187 186 178 178 177 179 179 178 180 175 141 90 83 68 118 206 196 203 177 173
192 243 153 154 185 145 184 201 152 144 113 225 66 277 293 267 272 230 234 213 213 207 203 195 188 185 186 184 178 177 177 180 183 177 174 172 178 161 199 173 177 182 184 181
222 159 153 146 191 143 210 151 145 133 99 48 325 38 271 278 272 261 235 221 215 207 194 190 192 189 186 177 178 177 177 181 184 186 183 181 179 172 147 145 163 176 185 182
130 227 81 171 92 151 152 84 49 49 72 344 217 160 276 232 216 267 270 248 217 199 199 196 190 178 180 173 175 174 178 188 185 183 183 186 184 172 156 168 172 182 183 185
27 331 298 172 86 27 90 82 11 2 15 228 335 162 251 266 250 238 286 294 241 202 189 179 171 177 176 178 179 178 181 190 189 186 189 192 188 178 180 179 177 172 172 191
148 247 183 179 167 170 180 153 157 195 188 240 92 237 253 234 300 257 257 266 268 209 186 185 183 181 181 182 182 182 184 188 187 187 195 192 180 183 184 180 176 187 188 177
133 222 7 44 62 129 196 186 165 105 8 37 204 285 288 291 307 321 268 268 262 232 200 190 180 183 180 184 186 184 182 186 188 190 187 187 180 179 188 184 176 180 171 176
198 104 15 342 141 18 141 166 80 360 135 224 269 275 245 300 355 344 347 303 286 309 207 183 182 184 186 188 184 183 184 185 184 182 187 188 186 184 178 170 185 181 177 173
142 105 278 125 211 171 151 174 137 124 155 167 184 257 222 275 53 332 341 339 307 291 276 227 196 179 178 167 175 182 181 177 175 180 181 176 182 180 171 184 184 183 169 173
168 117 142 195 271 281 90 196 156 140 213 224 140 266 259 164 347 2 350 341 334 263 230 190 162 154 163 171 173 186 183 183 187 182 173 180 171 170 177 187 183 170 180 178
180 194 84 9 352 336 203 194 155 125 85 196 154 257 144 272 46 8 348 326 301 294 196 174 166 179 182 185 185 186 187 191 181 176 179 176 177 180 187 186 177 175 172 178
90 96 150 185 193 140 177 191 180 156 166 164 223 261 309 302 294 299 295 306 325 304 275 239 225 209 200 198 190 186 188 187 180 181 185 185 186 186 185 178 176 179 178 176
117 136 116 57 98 97 151 171 178 202 197 203 232 236 271 291 304 309 184 312 229 237 244 234 235 221 211 205 195 191 191 185 181 183 185 191 186 182 175 176 178 175 176 183
47 123 106 39 45 99 176 254 215 221 217 259 261 269 253 262 274 276 287 290 289 280 247 232 231 222 220 207 196 192 192 190 182 188 190 183 176 177 181 180 177 171 179 173
106 124 87 214 331 162 321 223 201 197 218 200 202 231 189 253 261 266 265 268 273 272 268 254 229 226 223 210 197 201 193 177 185 192 190 185 181 183 183 177 173 180 184 178
116 90 80 162 35 156 243 290 348 215 247 224 262 272 259 251 271 281 266 264 280 279 279 265 243 233 224 212 210 200 187 186 189 193 191 184 181 181 176 174 180 180 176 181
72 110 97 130 182 295 290 207 174 182 266 218 231 254 259 264 312 281 286 2 313 312 307 295 265 258 232 196 202 191 189 191 192 199 193 184 180 176 173 182 180 181 174 179
42 71 106 95 141 209 249 283 175 103 278 216 185 230 261 125 171 266 1 339 316 310 301 308 306 283 217 216 188 186 192 188 203 203 194 181 177 178 180 179 179 177 181 183
110 43 142 168 201 280 240 249 348 107 239 65 61 75 131 180 210 293 319 320 300 300 314 319 313 279 258 220 179 194 194 205 208 174 169 172 176 178 177 169 171 166 167 159
154 136 180 100 108 264 212 96 181 182 81 12 49 96 310 292 300 297 305 306 318 320 326 328 320 310 292 242 199 207 203 206 156 158 162 165 169 170 164 159 155 158 157 162
204 177 171 182 206 217 208 155 50 79 83 20 312 153 309 284 279 298 290 309 309 303 307 308 309 308 304 276 225 216 210 137 139 148 160 164 159 158 160 159 159 159 165 168
239 167 186 112 220 210 247 23 85 25 1 344 332 315 290 264 278 283 294 297 305 309 313 310 319 314 306 316 273 214 150 142 149 154 155 153 154 150 153 156 161 160 165 167
191 145 175 270 240 231 74 104 351 346 358 347 335 303 292 300 290 273 291 295 296 300 310 316 313 312 310 322 332 34 143 148 147 143 147 150 145 148 142 133 157 159 142 170
193 174 184 218 181 161 175 164 243 313 310 316 321 311 292 288 286 291 286 288 298 310 317 318 315 308 314 339 1 7 78 127 138 138 149 154 147 140 140 134 116 111 128 127